Weather in Lappeenranta

Finland     61°03′28″N   28°11′16″E
temp.,
°C
wind,
m/s
gust,
m/s
humid.,
%
clouds,
%
prec.,
mm/h
press.,
hPa
HPBL,
m
20 april, tue
tue2000:00+3ene27590 0.0 1028135
03:00+2ene277326 0.0 1027127
06:00+1e2684100 0.0 1025117
09:00+5e3565100 0.0 1024243
12:00+9ese464189 0.0 10221192
15:00+10e45364 0.0 10201627
18:00+9ese45364 0.0 10191643
21:00+5e37585 0.0 1018161
21 april, wed
wed2100:00+3e27655 0.0 1016131
03:00+2ese247750 0.0 101470
06:00+2ese2287100 0.0 101236
09:00+5ese347391 0.0 1010348
12:00+8e226497 0.1 10071179
15:00+7e3367100 0.1 1006831
18:00+6ese237092 0.0 1004656
21:00+4se238386 0.0 1004220
22 april, thu
thu2200:00+4s259096 0.0 1003238
03:00+1s249719 0.0 100395
06:00+1se239754 0.0 100378
09:00+6sse347790 0.0 1003340
12:00+10ssw46549 0.0 10031019
15:00+10ssw574458 0.0 10041147
18:00+10ssw354998 0.0 10051123
21:00+5sw1186100 0.3 100533
23 april, fri
fri2300:00+5s2585100 0.0 1005358
03:00+3s389513 0.0 1006242
06:00+2sse2595100 0.0 1006131
09:00+5sse3575100 0.0 1006635
12:00+7s575323 0.0 10061129
15:00+7s6104877 0.0 10071634
18:00+6ssw48496 0.0 10081278
21:00+3sse25706 0.0 100896
24 april, sat
sat2400:00+2se25845 0.0 1008117
03:00+1sse23935 0.0 100852
06:000sse119695 0.0 100912
09:00+5e12735 0.0 1009462
12:00+7ne2355100 0.3 10081346
15:00+7nne3459100 0.9 10081060
18:00+5nne4583100 0.4 1008559
21:00+3nne2697100 2.9 1008445